| time (UTC) | temp C | wind direction | speed KPH | gust KPH | rain 1hr cm | rain 24hr cm | rain mn cm | humidity % | barometer mb |
| 20260905211536 | 27 | 113 | 11.3 | 17.7 | 0.00 | 0.00 | 0.00 | 86 | 1015.2 |
| 20260905210517 | 26 | 113 | 9.7 | 16.1 | 0.00 | 0.00 | 0.00 | 87 | 1015.4 |
| 20260905205516 | 26 | 113 | 9.7 | 20.9 | 0.00 | 0.00 | 0.00 | 87 | 1015.5 |
| 20260905204516 | 27 | 90 | 9.7 | 17.7 | 0.00 | 0.00 | 0.00 | 86 | 1015.3 |
| 20260905203536 | 27 | 90 | 12.9 | 19.3 | 0.00 | 0.00 | 0.00 | 85 | 1015.5 |
| 20260905202537 | 26 | 90 | 11.3 | 19.3 | 0.00 | 0.00 | 0.00 | 87 | 1015.4 |
| 20260905201516 | 26 | 90 | 14.5 | 22.5 | 0.00 | 0.00 | 0.00 | 86 | 1015.4 |
| 20260905200516 | 26 | 90 | 11.3 | 16.1 | 0.00 | 0.00 | 0.00 | 86 | 1015.5 |
| 20260905195517 | 26 | 90 | 11.3 | 17.7 | 0.00 | 0.00 | 0.00 | 87 | 1015.6 |
| 20260905194516 | 26 | 90 | 14.5 | 22.5 | 0.00 | 0.00 | 0.00 | 85 | 1015.3 |
| 20260905193537 | 26 | 90 | 14.5 | 20.9 | 0.00 | 0.00 | 0.00 | 85 | 1015.5 |
| 20260905192516 | 26 | 90 | 11.3 | 17.7 | 0.00 | 0.00 | 0.00 | 86 | 1015.5 |
| 20260905191537 | 26 | 90 | 14.5 | 24.1 | 0.00 | 0.00 | 0.00 | 86 | 1015.6 |
| 20260905190516 | 26 | 90 | 14.5 | 22.5 | 0.00 | 0.00 | 0.00 | 85 | 1015.6 |
| 20260905185516 | 26 | 68 | 14.5 | 20.9 | 0.00 | 0.00 | 0.00 | 87 | 1015.7 |
| 20260905184517 | 26 | 68 | 16.1 | 27.4 | 0.00 | 0.00 | 0.00 | 87 | 1015.6 |
| 20260905183517 | 25 | 45 | 4.8 | 12.9 | 0.00 | 0.00 | 0.00 | 88 | 1015.9 |
| 20260905182516 | 25 | 90 | 16.1 | 25.7 | 0.00 | 0.00 | 0.00 | 90 | 1015.6 |
| 20260905181516 | 24 | 68 | 11.3 | 19.3 | 0.00 | 0.00 | 0.00 | 91 | 1015.8 |
| 20260905180537 | 23 | 90 | 12.9 | 20.9 | 0.00 | 0.00 | 0.00 | 92 | 1016.1 |
| 20260905175516 | 23 | 68 | 12.9 | 19.3 | 0.00 | 0.00 | 0.00 | 93 | 1015.9 |
| 20260905174516 | 23 | 68 | 14.5 | 22.5 | 0.00 | 0.00 | 0.00 | 94 | 1015.9 |
| 20260905173516 | 23 | 68 | 12.9 | 19.3 | 0.00 | 0.00 | 0.00 | 95 | 1016.4 |
| 20260905172516 | 23 | 68 | 12.9 | 19.3 | 0.00 | 0.00 | 0.00 | 96 | 1016.6 |
| 20260905171517 | 22 | 68 | 17.7 | 24.1 | 0.00 | 0.00 | 0.00 | 96 | 1016.6 |
| 20260905170516 | 22 | 68 | 17.7 | 27.4 | 0.00 | 0.00 | 0.00 | 97 | 1016.8 |
| 20260905165516 | 22 | 68 | 14.5 | 22.5 | 0.00 | 0.00 | 0.00 | 97 | 1017.0 |
| 20260905164516 | 22 | 68 | 9.7 | 17.7 | 0.00 | 0.00 | 0.00 | 98 | 1016.9 |
| 20260905163516 | 22 | 90 | 9.7 | 14.5 | 0.00 | 0.00 | 0.00 | 98 | 1017.2 |
| 20260905162516 | 21 | 90 | 9.7 | 16.1 | 0.00 | 0.00 | 0.00 | 98 | 1017.1 |
| 20260905161516 | 21 | 113 | 8.0 | 16.1 | 0.00 | 0.00 | 0.00 | 98 | 1017.3 |
| 20260905160516 | 21 | 90 | 6.4 | 12.9 | 0.00 | 0.00 | 0.00 | 99 | 1017.3 |
| 20260905155516 | 21 | 113 | 6.4 | 12.9 | 0.00 | 0.00 | 0.00 | 99 | 1017.6 |
| 20260905154516 | 21 | 135 | 3.2 | 6.4 | 0.00 | 0.00 | 0.00 | 98 | 1017.8 |
| 20260905153516 | 20 | 135 | 3.2 | 6.4 | 0.00 | 0.00 | 0.00 | 99 | 1017.9 |
| 20260905152515 | 20 | 135 | 3.2 | 4.8 | 0.00 | 0.00 | 0.00 | 98 | 1017.9 |
| 20260905151515 | 20 | 23 | 3.2 | 6.4 | 0.00 | 0.00 | 0.00 | 98 | 1017.6 |
| 20260905150516 | 20 | 23 | 1.6 | 3.2 | 0.00 | 0.00 | 0.00 | 98 | 1017.4 |
| 20260905145515 | 20 | 0.0 | 3.2 | 0.00 | 0.00 | 0.00 | 98 | 1017.8 | |
| 20260905144516 | 20 | 0.0 | 3.2 | 0.00 | 0.00 | 0.00 | 98 | 1017.7 | |
| 20260905143515 | 20 | 23 | 3.2 | 6.4 | 0.00 | 0.00 | 0.00 | 98 | 1017.2 |
| 20260905142536 | 20 | 23 | 4.8 | 6.4 | 0.00 | 0.00 | 0.00 | 98 | 1017.0 |
| 20260905141536 | 20 | 23 | 4.8 | 6.4 | 0.00 | 0.00 | 0.00 | 98 | 1017.0 |
| 20260905140516 | 20 | 23 | 4.8 | 8.0 | 0.00 | 0.00 | 0.00 | 98 | 1017.0 |
| 20260905135516 | 20 | 68 | 1.6 | 4.8 | 0.00 | 0.00 | 0.00 | 98 | 1017.1 |
| 20260905134516 | 20 | 90 | 6.4 | 12.9 | 0.00 | 0.00 | 0.00 | 98 | 1016.6 |
| 20260905133515 | 20 | 90 | 6.4 | 12.9 | 0.00 | 0.00 | 0.00 | 98 | 1016.4 |
| 20260905132517 | 20 | 90 | 4.8 | 12.9 | 0.00 | 0.00 | 0.00 | 98 | 1016.4 |
| 20260905131517 | 20 | 90 | 6.4 | 12.9 | 0.00 | 0.00 | 0.00 | 98 | 1016.3 |
| 20260905130518 | 20 | 68 | 9.7 | 16.1 | 0.00 | 0.00 | 0.00 | 98 | 1016.3 |
| 20260905125517 | 20 | 68 | 6.4 | 9.7 | 0.00 | 0.00 | 0.00 | 98 | 1016.4 |
| 20260905124518 | 20 | 68 | 8.0 | 14.5 | 0.00 | 0.00 | 0.00 | 98 | 1016.4 |
| 20260905123517 | 19 | 45 | 6.4 | 8.0 | 0.00 | 0.00 | 0.00 | 98 | 1016.3 |
| 20260905122517 | 19 | 45 | 4.8 | 6.4 | 0.00 | 0.00 | 0.00 | 98 | 1016.5 |
| 20260905121538 | 19 | 45 | 4.8 | 6.4 | 0.00 | 0.00 | 0.00 | 98 | 1016.1 |
| 20260905120517 | 19 | 45 | 4.8 | 9.7 | 0.00 | 0.00 | 0.00 | 98 | 1015.6 |
| 20260905115518 | 19 | 68 | 4.8 | 9.7 | 0.00 | 0.00 | 0.00 | 98 | 1015.5 |
| 20260905114517 | 19 | 68 | 4.8 | 8.0 | 0.00 | 0.00 | 0.00 | 98 | 1015.6 |
| 20260905113517 | 19 | 68 | 4.8 | 8.0 | 0.00 | 0.00 | 0.00 | 98 | 1015.6 |
| 20260905112518 | 19 | 68 | 4.8 | 8.0 | 0.00 | 0.00 | 0.00 | 98 | 1015.7 |
| 20260905111518 | 19 | 68 | 3.2 | 4.8 | 0.00 | 0.00 | 0.00 | 98 | 1015.5 |
| 20260905110517 | 19 | 68 | 3.2 | 4.8 | 0.00 | 0.00 | 0.00 | 98 | 1015.5 |
| 20260905105517 | 19 | 68 | 4.8 | 8.0 | 0.00 | 0.00 | 0.00 | 98 | 1015.3 |
| 20260905104518 | 19 | 68 | 6.4 | 9.7 | 0.00 | 0.00 | 0.00 | 98 | 1015.1 |
| 20260905103517 | 19 | 68 | 6.4 | 8.0 | 0.00 | 0.00 | 0.00 | 98 | 1015.1 |
| 20260905102518 | 19 | 45 | 6.4 | 8.0 | 0.00 | 0.00 | 0.00 | 98 | 1015.1 |
| 20260905101517 | 19 | 68 | 4.8 | 8.0 | 0.00 | 0.00 | 0.00 | 97 | 1015.0 |
| 20260905100537 | 19 | 68 | 6.4 | 9.7 | 0.00 | 0.00 | 0.00 | 97 | 1015.0 |
| 20260905095517 | 19 | 68 | 3.2 | 4.8 | 0.00 | 0.00 | 0.00 | 97 | 1015.0 |
| 20260905094517 | 19 | 68 | 3.2 | 4.8 | 0.00 | 0.00 | 0.00 | 97 | 1015.0 |
| 20260905093542 | 19 | 0.0 | 0.0 | 0.00 | 0.00 | 0.00 | 97 | 1015.2 | |
| 20260905092537 | 19 | 68 | 1.6 | 4.8 | 0.00 | 0.00 | 0.00 | 97 | 1015.1 |
| 20260905091518 | 19 | 68 | 3.2 | 6.4 | 0.00 | 0.00 | 0.00 | 97 | 1014.8 |
| 20260905090517 | 20 | 68 | 4.8 | 9.7 | 0.00 | 0.00 | 0.00 | 97 | 1014.8 |
| 20260905085517 | 20 | 68 | 4.8 | 8.0 | 0.00 | 0.00 | 0.00 | 97 | 1014.4 |
| 20260905084516 | 20 | 68 | 4.8 | 8.0 | 0.00 | 0.00 | 0.00 | 97 | 1014.6 |
| 20260905083517 | 20 | 68 | 6.4 | 11.3 | 0.00 | 0.00 | 0.00 | 96 | 1014.8 |
| 20260905082517 | 20 | 68 | 6.4 | 9.7 | 0.00 | 0.00 | 0.00 | 96 | 1015.0 |
| 20260905081517 | 20 | 68 | 4.8 | 9.7 | 0.00 | 0.00 | 0.00 | 96 | 1015.3 |
| 20260905080516 | 20 | 68 | 6.4 | 9.7 | 0.00 | 0.00 | 0.00 | 96 | 1015.2 |
| 20260905075537 | 20 | 45 | 6.4 | 9.7 | 0.00 | 0.00 | 0.00 | 96 | 1015.2 |
| 20260905074517 | 20 | 45 | 8.0 | 9.7 | 0.00 | 0.00 | 0.00 | 96 | 1015.1 |
| 20260905073537 | 21 | 45 | 8.0 | 11.3 | 0.00 | 0.00 | 0.00 | 96 | 1015.3 |
| 20260905072517 | 21 | 68 | 8.0 | 12.9 | 0.00 | 0.00 | 0.00 | 96 | 1015.3 |
| 20260905071516 | 21 | 68 | 8.0 | 12.9 | 0.00 | 0.00 | 0.00 | 96 | 1015.1 |
| 20260905070517 | 21 | 68 | 8.0 | 12.9 | 0.00 | 0.00 | 0.00 | 95 | 1015.2 |
| 20260905065517 | 21 | 68 | 8.0 | 14.5 | 0.00 | 0.00 | 0.00 | 96 | 1015.2 |
| 20260905064516 | 21 | 68 | 8.0 | 11.3 | 0.00 | 0.00 | 0.00 | 95 | 1015.1 |
| 20260905063517 | 21 | 68 | 4.8 | 8.0 | 0.00 | 0.00 | 0.00 | 95 | 1015.2 |
| 20260905062517 | 21 | 68 | 8.0 | 12.9 | 0.00 | 0.00 | 0.00 | 95 | 1015.2 |
| 20260905061521 | 21 | 68 | 6.4 | 9.7 | 0.00 | 0.00 | 0.00 | 95 | 1015.1 |
| 20260905060517 | 21 | 45 | 6.4 | 9.7 | 0.00 | 0.00 | 0.00 | 95 | 1015.1 |
| 20260905055516 | 21 | 68 | 8.0 | 11.3 | 0.00 | 0.00 | 0.00 | 95 | 1015.1 |
| 20260905054516 | 21 | 68 | 6.4 | 9.7 | 0.00 | 0.00 | 0.00 | 95 | 1015.0 |
| 20260905053517 | 21 | 68 | 4.8 | 6.4 | 0.00 | 0.00 | 0.00 | 95 | 1014.9 |
| 20260905052516 | 21 | 68 | 4.8 | 6.4 | 0.00 | 0.00 | 0.00 | 95 | 1014.9 |
| 20260905051557 | 22 | 68 | 3.2 | 6.4 | 0.00 | 0.00 | 0.00 | 95 | 1014.7 |
| 20260905050516 | 22 | 68 | 4.8 | 11.3 | 0.00 | 0.00 | 0.00 | 95 | 1014.6 |
| 20260905045517 | 22 | 90 | 4.8 | 8.0 | 0.00 | 0.00 | 0.00 | 95 | 1014.6 |
| 20260905044517 | 22 | 68 | 4.8 | 8.0 | 0.00 | 0.00 | 0.00 | 95 | 1014.7 |
| 20260905043538 | 22 | 68 | 4.8 | 6.4 | 0.00 | 0.00 | 0.00 | 95 | 1014.6 |
| 20260905042517 | 22 | 68 | 1.6 | 4.8 | 0.00 | 0.00 | 0.00 | 95 | 1014.7 |
| 20260905041517 | 22 | 68 | 3.2 | 6.4 | 0.00 | 0.00 | 0.00 | 95 | 1014.8 |
| 20260905040518 | 22 | 68 | 3.2 | 6.4 | 0.00 | 0.00 | 0.00 | 95 | 1014.8 |
| 20260905035517 | 22 | 68 | 1.6 | 3.2 | 0.00 | 0.00 | 0.00 | 95 | 1014.7 |
| 20260905034517 | 22 | 68 | 1.6 | 3.2 | 0.00 | 0.00 | 0.00 | 95 | 1014.7 |
| 20260905033518 | 22 | 68 | 3.2 | 6.4 | 0.00 | 0.00 | 0.00 | 95 | 1014.6 |
| 20260905032517 | 22 | 68 | 4.8 | 8.0 | 0.00 | 0.00 | 0.00 | 95 | 1014.4 |
| 20260905031517 | 22 | 68 | 3.2 | 6.4 | 0.00 | 0.00 | 0.00 | 95 | 1014.4 |
| 20260905030518 | 22 | 68 | 3.2 | 4.8 | 0.00 | 0.00 | 0.00 | 94 | 1014.4 |
| 20260905025658 | 22 | 68 | 3.2 | 6.4 | 0.00 | 0.00 | 0.00 | 94 | 1014.3 |
| 20260905024518 | 23 | 68 | 4.8 | 9.7 | 0.00 | 0.00 | 0.00 | 94 | 1013.9 |
| 20260905023517 | 23 | 68 | 6.4 | 8.0 | 0.00 | 0.00 | 0.00 | 93 | 1014.0 |
| 20260905022518 | 23 | 45 | 3.2 | 8.0 | 0.00 | 0.00 | 0.00 | 93 | 1013.9 |
| 20260905021517 | 23 | 45 | 6.4 | 9.7 | 0.00 | 0.00 | 0.00 | 92 | 1013.8 |
| 20260905020518 | 23 | 45 | 8.0 | 11.3 | 0.00 | 0.00 | 0.00 | 93 | 1013.5 |
| 20260905015517 | 23 | 45 | 8.0 | 11.3 | 0.00 | 0.00 | 0.00 | 93 | 1013.4 |
| 20260905014517 | 24 | 45 | 8.0 | 11.3 | 0.00 | 0.00 | 0.00 | 93 | 1013.4 |
| 20260905013518 | 24 | 23 | 8.0 | 9.7 | 0.00 | 0.00 | 0.00 | 93 | 1013.3 |
| 20260905012517 | 24 | 23 | 6.4 | 9.7 | 0.00 | 0.00 | 0.00 | 93 | 1013.2 |
| 20260905011518 | 25 | 23 | 6.4 | 9.7 | 0.00 | 0.00 | 0.00 | 93 | 1013.2 |
| 20260905010517 | 25 | 23 | 6.4 | 9.7 | 0.00 | 0.00 | 0.00 | 92 | 1013.1 |
| 20260905005517 | 25 | 45 | 6.4 | 9.7 | 0.00 | 0.00 | 0.00 | 91 | 1013.0 |
| 20260905004537 | 26 | 45 | 8.0 | 9.7 | 0.00 | 0.00 | 0.00 | 90 | 1013.0 |
| 20260905003517 | 26 | 45 | 6.4 | 8.0 | 0.00 | 0.00 | 0.00 | 90 | 1013.0 |
| 20260905002517 | 26 | 45 | 6.4 | 8.0 | 0.00 | 0.00 | 0.00 | 89 | 1013.1 |
| 20260905001516 | 27 | 45 | 8.0 | 11.3 | 0.00 | 0.00 | 0.00 | 88 | 1012.9 |
| 20260905000537 | 27 | 45 | 6.4 | 9.7 | 0.00 | 0.00 | 0.00 | 87 | 1013.0 |
| 20260904235516 | 28 | 45 | 8.0 | 14.5 | 0.00 | 0.00 | 0.00 | 86 | 1013.0 |
| 20260904234516 | 28 | 45 | 8.0 | 14.5 | 0.00 | 0.00 | 0.00 | 85 | 1013.1 |
| 20260904233516 | 28 | 45 | 8.0 | 12.9 | 0.00 | 0.00 | 0.00 | 84 | 1013.2 |
| 20260904232516 | 28 | 45 | 9.7 | 12.9 | 0.00 | 0.00 | 0.00 | 84 | 1013.1 |
| 20260904231517 | 29 | 45 | 8.0 | 9.7 | 0.00 | 0.00 | 0.00 | 84 | 1013.2 |
| 20260904230516 | 29 | 45 | 9.7 | 16.1 | 0.00 | 0.00 | 0.00 | 83 | 1013.1 |
| 20260904225536 | 30 | 45 | 9.7 | 16.1 | 0.00 | 0.00 | 0.00 | 83 | 1013.1 |
| 20260904224516 | 30 | 45 | 8.0 | 14.5 | 0.00 | 0.00 | 0.00 | 83 | 1013.0 |
| 20260904223516 | 30 | 45 | 9.7 | 14.5 | 0.00 | 0.00 | 0.00 | 82 | 1012.8 |
| 20260904222517 | 30 | 45 | 9.7 | 14.5 | 0.00 | 0.00 | 0.00 | 82 | 1012.8 |
| 20260904221537 | 30 | 45 | 9.7 | 14.5 | 0.00 | 0.00 | 0.00 | 81 | 1012.8 |
| 20260904220516 | 30 | 45 | 9.7 | 14.5 | 0.00 | 0.00 | 0.00 | 81 | 1012.8 |
| 20260904215516 | 30 | 45 | 9.7 | 14.5 | 0.00 | 0.00 | 0.00 | 81 | 1012.8 |
| 20260904214516 | 30 | 23 | 11.3 | 16.1 | 0.00 | 0.00 | 0.00 | 80 | 1012.8 |
| 20260904213517 | 30 | 23 | 12.9 | 17.7 | 0.00 | 0.00 | 0.00 | 80 | 1012.9 |
| 20260904212517 | 30 | 23 | 12.9 | 17.7 | 0.00 | 0.00 | 0.00 | 80 | 1012.8 |